Tracking 31027 objects as of 19-Jul-2025
HD Live streaming from Space Station
objects crossing your sky now

DELTA 1 DEB

Track DELTA 1 DEB now!
10-day predictions


NORAD ID: 7088
Int'l Code: 1973-086CG
Perigee: 1,129.2 km
Apogee: 1,533.8 km
Inclination: 102.4 °
Period: 112.1 minutes
Semi major axis: 7702 km
RCS: 0.0368 m2 (small)
Launch date: November 6, 1973
Source: United States (US)
Launch site: AIR FORCE WESTERN TEST RANGE (AFWTR)

Note: This is SATELLITE DEBRIS
Your satellite tracking list
IRIDIUM 134
Track 1 satellite(s)




NASA's NSSDC Master Catalog

Two Line Element Set (TLE):
1 07088U 73086CG  25199.93710832  .00000266  00000-0  11382-2 0  9997
2 07088 102.4107  88.5737 0262670  44.1354  23.1159 12.84261656409760
Source of the keplerian elements: AFSPC